Location: Jackson Park
(37.2862°N, 79.9123°W)
Time: 02:00:10
(UTC+00:00)

Explorer 7 - All Passes

Search period start: 14 May 2026 00:00
Search period end: 24 May 2026 00:00
Orbit: 427 x 536 km, 50.2° (Epoch: 13 May)

Date Brightness Start Highest point End Pass type
(mag) Time Alt. Az. Time Alt. Az. Time Alt. Az.
14 May - 09:56:11 10° SW 09:59:40 63° SE 10:03:17 10° ENE daylight
14 May - 11:35:21 10° WNW 11:38:14 22° NNW 11:41:13 10° NNE daylight
14 May - 13:16:16 10° NNW 13:17:40 12° N 13:19:05 10° NNE daylight
14 May - 14:54:38 10° NNW 14:57:13 17° NNE 14:59:51 10° ENE daylight
14 May - 16:32:13 10° NW 16:36:07 62° NE 16:40:07 10° ESE daylight
14 May - 18:11:24 10° W 18:14:09 18° SW 18:16:55 10° S daylight
15 May - 09:28:32 10° SW 09:31:58 57° SE 09:35:31 10° ENE visible
15 May - 11:07:33 10° WNW 11:10:29 23° NNW 11:13:30 10° NNE daylight
15 May - 12:48:30 10° NNW 12:49:52 12° N 12:51:17 10° NNE daylight
15 May - 14:26:58 10° NNW 14:29:26 16° NNE 14:31:57 10° ENE daylight
15 May - 16:04:32 10° NW 16:08:23 57° NE 16:12:20 10° ESE daylight
15 May - 17:43:32 10° W 17:46:27 19° SW 17:49:23 10° S daylight
16 May - 09:00:52 10° SW 09:04:15 51° SE 09:07:45 10° ENE visible
16 May - 10:39:45 10° W 10:42:43 24° NNW 10:45:47 10° NNE daylight
16 May - 12:20:43 10° NNW 12:22:04 12° N 12:23:28 10° NNE daylight
16 May - 13:59:18 10° NNW 14:01:39 15° NNE 14:04:03 10° NE daylight
16 May - 15:36:49 10° NW 15:40:38 52° NE 15:44:32 10° ESE daylight
16 May - 17:15:41 10° W 17:18:43 21° SW 17:21:48 10° S daylight
17 May - 08:33:13 10° SSW 08:36:32 45° SE 08:39:58 10° ENE visible
17 May - 10:11:57 10° W 10:14:57 25° NNW 10:18:03 10° NNE daylight
17 May - 11:52:55 10° NNW 11:54:17 12° N 11:55:39 10° NNE daylight
17 May - 13:31:37 10° NNW 13:33:51 15° NNE 13:36:07 10° NE daylight
17 May - 15:09:06 10° NW 15:12:52 48° NNE 15:16:43 10° ESE daylight
17 May - 16:47:50 10° W 16:51:00 23° SW 16:54:12 10° S daylight
18 May - 08:05:34 10° SSW 08:08:49 40° SE 08:12:10 10° ENE visible
18 May - 09:44:09 10° W 09:47:11 26° NNW 09:50:19 10° NNE daylight
18 May - 11:25:06 10° NNW 11:26:28 12° N 11:27:51 10° NNE daylight
18 May - 13:03:56 10° NNW 13:06:03 14° NNE 13:08:11 10° NE daylight
18 May - 14:41:23 10° NW 14:45:05 44° NNE 14:48:53 10° ESE daylight
18 May - 16:20:00 10° WNW 16:23:15 25° SW 16:26:34 10° S daylight
19 May - 07:37:54 10° SSW 07:41:05 36° SE 07:44:21 10° ENE visible
19 May - 09:16:20 10° W 09:19:24 28° NNW 09:22:34 10° NE visible
19 May - 10:57:16 10° NNW 10:58:39 12° N 11:00:03 10° NNE daylight
19 May - 12:36:15 10° NNW 12:38:14 14° NNE 12:40:14 10° NE daylight
19 May - 14:13:40 10° NW 14:17:17 41° NNE 14:21:02 10° ESE daylight
19 May - 15:52:09 10° WNW 15:55:30 27° SW 15:58:54 10° SSE daylight
20 May - 07:10:15 10° SSW 07:13:21 32° SE 07:16:32 10° ENE visible
20 May - 08:48:30 10° W 08:51:37 30° NNW 08:54:49 10° NE visible
20 May - 10:29:25 10° NNW 10:30:50 12° N 10:32:14 10° NNE daylight
20 May - 12:08:33 10° NNW 12:10:24 13° NNE 12:12:16 10° NE daylight
20 May - 13:45:57 10° NW 13:49:29 38° NNE 13:53:09 10° E daylight
20 May - 15:24:20 10° WNW 15:27:44 30° SW 15:31:13 10° SSE daylight
21 May - 06:42:35 10° SSW 06:45:36 29° SE 06:48:40 10° ENE visible
21 May - 08:20:41 10° W 08:23:49 32° NNW 08:27:03 10° NE visible
21 May - 10:01:32 10° NNW 10:02:59 12° N 10:04:27 10° NNE daylight
21 May - 11:40:52 10° NNW 11:42:33 13° NNE 11:44:17 10° NE daylight
21 May - 13:18:12 10° NW 13:21:41 35° NNE 13:25:16 10° E daylight
21 May - 14:56:30 10° WNW 14:59:57 32° SW 15:03:30 10° SSE daylight
22 May - 06:14:57 10° SSW 06:17:50 26° SE 06:20:48 10° ENE visible
22 May - 07:52:50 10° W 07:56:01 34° NNW 07:59:16 10° NE visible
22 May - 09:33:39 10° NW 09:35:08 12° N 09:36:39 10° NNE visible
22 May - 11:13:09 10° NNW 11:14:43 12° N 11:16:17 10° NE daylight
22 May - 12:50:28 10° NW 12:53:51 32° NNE 12:57:22 10° E daylight
22 May - 14:28:40 10° WNW 14:32:10 35° SW 14:35:47 10° SSE daylight
23 May - 05:47:18 10° S 05:50:05 24° SE 05:52:55 10° ENE visible
23 May - 07:25:00 10° W 07:28:12 36° NNW 07:31:29 10° NE visible
23 May - 09:05:44 10° NW 09:07:17 12° NNW 09:08:51 10° NNE visible
23 May - 10:45:26 10° NNW 10:46:51 12° N 10:48:17 10° NNE daylight
23 May - 12:22:43 10° NW 12:26:02 30° NNE 12:29:28 10° E daylight
23 May - 14:00:50 10° WNW 14:04:22 39° SW 14:08:01 10° SSE daylight
